FW5816 Weather Reports


Display with metric or nautical units.
time (UTC)temp
F
wind
direction
speed
MPH
gust
MPH
rain 1hr
in
rain 24hr
in
rain mn
in
humidity
%
barometer
mb
20260904022520 84 0 0.0 1.0 0.00 0.00 0.00 75 1015.7
20260904022021 84 0 0.0 1.0 0.00 0.00 0.00 74 1015.8
20260904021537 84 0 0.0 1.0 0.00 0.00 0.00 74 1015.9
20260904021021 84 0 0.0 1.0 0.00 0.00 0.00 74 1015.8
20260904020517 84 0 0.0 0.0 0.00 0.00 0.00 74 1015.9
20260904020036 84 0 0.0 0.0 0.00 0.00 0.00 73 1015.8
20260904015522 84 0 0.0 0.0 0.00 0.00 0.00 72 1015.8
20260904015017 85 0 0.0 0.0 0.00 0.00 0.00 71 1015.8
20260904014538 85 0 0.0 0.0 0.00 0.00 0.00 71 1015.7
20260904014020 85 0 0.0 0.0 0.00 0.00 0.00 71 1015.7
20260904013518 85 0 0.0 0.0 0.00 0.00 0.00 70 1015.7
20260904013036 86 0 0.0 1.0 0.00 0.00 0.00 69 1015.6
20260904012519 86 0 0.0 1.0 0.00 0.00 0.00 69 1015.6
20260904012020 86 288 0.0 1.0 0.00 0.00 0.00 68 1015.6
20260904011558 86 0 0.0 1.0 0.00 0.00 0.00 69 1015.6
20260904011019 86 0 0.0 1.0 0.00 0.00 0.00 68 1015.5
20260904010520 86 0 0.0 1.0 0.00 0.00 0.00 68 1015.5
20260904010036 87 0 0.0 1.0 0.00 0.00 0.00 68 1015.5
20260904005520 87 0 0.0 1.0 0.00 0.00 0.00 66 1015.3
20260904005017 88 0 0.0 0.0 0.00 0.00 0.00 66 1015.1
20260904004537 88 0 0.0 0.0 0.00 0.00 0.00 65 1015.2
20260904004019 89 0 0.0 0.0 0.00 0.00 0.00 64 1015.0
20260904003525 90 0 0.0 0.0 0.00 0.00 0.00 63 1015.1
20260904003037 90 0 0.0 0.0 0.00 0.00 0.00 61 1015.0
20260904002519 91 0 0.0 0.0 0.00 0.00 0.00 60 1014.8
20260904002018 91 0 0.0 0.0 0.00 0.00 0.00 59 1014.9
20260904001535 91 0 0.0 0.0 0.00 0.00 0.00 58 1014.8
20260904001019 92 0 0.0 0.0 0.00 0.00 0.00 57 1014.7
20260904000520 93 0 0.0 1.0 0.00 0.00 0.00 57 1014.8
20260904000043 93 0 0.0 1.0 0.00 0.00 0.00 55 1014.7
20260903235520 94 0 0.0 1.0 0.00 0.00 0.00 55 1014.7
20260903235017 94 0 0.0 1.0 0.00 0.00 0.00 54 1014.6
20260903234544 95 0 0.0 1.0 0.00 0.00 0.00 52 1014.6
20260903234020 95 0 0.0 1.0 0.00 0.00 0.00 52 1014.6
20260903233521 95 288 0.0 1.0 0.00 0.00 0.00 52 1014.5
20260903233036 96 288 0.0 2.0 0.00 0.00 0.00 52 1014.5
20260903232517 96 0 0.0 2.0 0.00 0.00 0.00 51 1014.5
20260903232016 96 288 0.0 2.0 0.00 0.00 0.00 51 1014.5
20260903231538 96 288 1.0 2.0 0.00 0.00 0.00 51 1014.5
20260903231021 96 266 0.0 3.0 0.00 0.00 0.00 51 1014.4
20260903230518 96 283 0.0 3.0 0.00 0.00 0.00 51 1014.5
20260903230042 96 269 1.0 3.0 0.00 0.00 0.00 50 1014.5
20260903225520 97 354 0.0 3.0 0.00 0.00 0.00 50 1014.4
20260903225020 97 276 1.0 3.0 0.00 0.00 0.00 50 1014.5
20260903224535 97 274 0.0 3.0 0.00 0.00 0.00 50 1014.4
20260903224016 97 4 0.0 7.0 0.00 0.00 0.00 50 1014.5
20260903223517 97 285 1.0 7.0 0.00 0.00 0.00 50 1014.5
20260903223036 98 278 1.0 5.0 0.00 0.00 0.00 51 1014.5
20260903222518 98 271 1.0 5.0 0.00 0.00 0.00 50 1014.3
20260903222018 97 0 0.0 5.0 0.00 0.00 0.00 49 1014.5
20260903221537 97 186 2.0 7.0 0.00 0.00 0.00 50 1014.4
20260903221019 97 248 3.0 7.0 0.00 0.00 0.00 49 1014.3
20260903220517 97 284 1.0 5.0 0.00 0.00 0.00 50 1014.4
20260903220039 97 265 1.0 7.0 0.00 0.00 0.00 50 1014.4
20260903215518 96 283 2.0 7.0 0.00 0.00 0.00 51 1014.5
20260903215018 97 213 3.0 8.0 0.00 0.00 0.00 49 1014.4
20260903214542 97 284 3.0 9.0 0.00 0.00 0.00 49 1014.4
20260903214019 97 279 4.0 9.0 0.00 0.00 0.00 49 1014.4
20260903213516 97 232 3.0 9.0 0.00 0.00 0.00 49 1014.5
20260903213048 96 294 5.0 9.0 0.00 0.00 0.00 49 1014.6
20260903212519 96 297 4.0 9.0 0.00 0.00 0.00 49 1014.6
20260903212018 97 314 5.0 10.0 0.00 0.00 0.00 49 1014.6
20260903211536 97 245 5.0 11.0 0.00 0.00 0.00 49 1014.6
20260903211020 97 243 6.0 11.0 0.00 0.00 0.00 48 1014.6
20260903210518 98 278 3.0 8.0 0.00 0.00 0.00 49 1014.6
20260903210036 97 238 4.0 8.0 0.00 0.00 0.00 48 1014.8
20260903205522 98 236 2.0 7.0 0.00 0.00 0.00 48 1015.0
20260903205018 98 287 1.0 7.0 0.00 0.00 0.00 49 1014.9
20260903204535 98 178 2.0 7.0 0.00 0.00 0.00 49 1015.0
20260903204016 97 259 3.0 7.0 0.00 0.00 0.00 49 1015.0
20260903203520 97 281 2.0 9.0 0.00 0.00 0.00 49 1015.0
20260903203103 97 235 3.0 11.0 0.00 0.00 0.00 49 1015.1
20260903202523 97 244 2.0 11.0 0.00 0.00 0.00 50 1015.1
20260903202020 97 282 5.0 11.0 0.00 0.00 0.00 49 1015.3
20260903201538 97 0 1.0 6.0 0.00 0.00 0.00 49 1015.3
20260903201019 96 29 2.0 6.0 0.00 0.00 0.00 49 1015.3
20260903200520 96 276 2.0 6.0 0.00 0.00 0.00 51 1015.5
20260903200035 96 251 3.0 5.0 0.00 0.00 0.00 52 1015.5
20260903195519 96 218 3.0 5.0 0.00 0.00 0.00 51 1015.6
20260903195019 96 0 0.0 4.0 0.00 0.00 0.00 52 1015.6
20260903194539 96 16 2.0 7.0 0.00 0.00 0.00 50 1015.6
20260903194025 97 194 2.0 7.0 0.00 0.00 0.00 51 1015.7
20260903193524 97 314 1.0 5.0 0.00 0.00 0.00 52 1015.6
20260903193041 97 262 2.0 6.0 0.00 0.00 0.00 52 1015.7
20260903192520 96 293 1.0 6.0 0.00 0.00 0.00 53 1015.8
20260903192020 95 19 0.0 6.0 0.00 0.00 0.00 56 1015.9
20260903191535 95 291 3.0 8.0 0.00 0.00 0.00 54 1015.8
20260903191017 96 287 3.0 8.0 0.00 0.00 0.00 53 1015.8
20260903190519 95 356 0.0 5.0 0.00 0.00 0.00 54 1015.9
20260903190037 94 317 1.0 5.0 0.00 0.00 0.00 54 1015.9
20260903185518 94 329 1.0 4.0 0.00 0.00 0.00 56 1016.0
20260903185018 93 295 1.0 3.0 0.00 0.00 0.00 59 1015.9
20260903184536 93 304 1.0 4.0 0.00 0.00 0.00 58 1016.1
20260903184019 93 302 2.0 4.0 0.00 0.00 0.00 57 1016.1
20260903183518 93 347 2.0 5.0 0.00 0.00 0.00 58 1016.2
20260903183043 93 313 2.0 5.0 0.00 0.00 0.00 59 1016.1
20260903182524 93 53 2.0 6.0 0.00 0.00 0.00 58 1016.2
20260903182020 93 347 2.0 6.0 0.00 0.00 0.00 58 1016.3
20260903181536 93 90 2.0 6.0 0.00 0.00 0.00 59 1016.4
20260903181017 93 314 1.0 6.0 0.00 0.00 0.00 58 1016.5
20260903180520 94 281 3.0 7.0 0.00 0.00 0.00 57 1016.5
20260903180037 95 312 3.0 7.0 0.00 0.00 0.00 54 1016.5
20260903175517 95 6 2.0 5.0 0.00 0.00 0.00 55 1016.7
20260903175019 94 281 1.0 5.0 0.00 0.00 0.00 56 1016.7
20260903174537 95 108 2.0 5.0 0.00 0.00 0.00 55 1016.7
20260903174017 95 296 1.0 7.0 0.00 0.00 0.00 57 1016.8
20260903173520 94 345 3.0 9.0 0.00 0.00 0.00 56 1016.8
20260903173037 94 333 4.0 9.0 0.00 0.00 0.00 56 1016.9
20260903172518 94 35 4.0 9.0 0.00 0.00 0.00 55 1016.9
20260903172020 94 293 3.0 7.0 0.00 0.00 0.00 56 1017.0
20260903171555 93 343 3.0 9.0 0.00 0.00 0.00 56 1017.0
20260903171017 93 332 4.0 9.0 0.00 0.00 0.00 57 1017.1
20260903170517 93 338 3.0 7.0 0.00 0.00 0.00 56 1017.1
20260903170038 94 293 2.0 7.0 0.00 0.00 0.00 57 1017.2
20260903165517 93 352 1.0 6.0 0.00 0.00 0.00 60 1017.4
20260903165017 93 188 2.0 7.0 0.00 0.00 0.00 58 1017.4
20260903164546 92 33 3.0 7.0 0.00 0.00 0.00 58 1017.5
20260903164019 92 30 3.0 7.0 0.00 0.00 0.00 59 1017.5
20260903163518 92 343 3.0 7.0 0.00 0.00 0.00 59 1017.6
20260903163037 92 273 3.0 9.0 0.00 0.00 0.00 57 1017.6
20260903162520 92 282 3.0 9.0 0.00 0.00 0.00 58 1017.6
20260903162020 93 295 2.0 6.0 0.00 0.00 0.00 58 1017.6
20260903161536 93 39 2.0 7.0 0.00 0.00 0.00 57 1017.7
20260903161021 92 276 3.0 7.0 0.00 0.00 0.00 57 1017.7
20260903160517 92 231 2.0 6.0 0.00 0.00 0.00 58 1017.7
20260903160039 92 352 2.0 6.0 0.00 0.00 0.00 59 1017.6
20260903155522 92 289 2.0 6.0 0.00 0.00 0.00 59 1017.6
20260903155019 91 242 3.0 6.0 0.00 0.00 0.00 59 1017.7
20260903154546 91 279 2.0 6.0 0.00 0.00 0.00 59 1017.6
20260903154018 91 293 1.0 6.0 0.00 0.00 0.00 63 1017.6
20260903153518 91 285 1.0 6.0 0.00 0.00 0.00 63 1017.6
20260903153036 91 351 2.0 5.0 0.00 0.00 0.00 62 1017.8
20260903152518 91 24 2.0 5.0 0.00 0.00 0.00 62 1017.7
20260903152019 91 291 1.0 6.0 0.00 0.00 0.00 61 1017.7
20260903151542 91 281 1.0 6.0 0.00 0.00 0.00 63 1017.5
20260903151020 90 17 1.0 4.0 0.00 0.00 0.00 62 1017.7
20260903150518 90 205 2.0 4.0 0.00 0.00 0.00 63 1017.7
20260903150040 90 271 2.0 3.0 0.00 0.00 0.00 63 1017.7
20260903145517 90 342 2.0 3.0 0.00 0.00 0.00 63 1017.6
20260903145021 90 276 1.0 3.0 0.00 0.00 0.00 64 1017.7
20260903144543 89 293 1.0 6.0 0.00 0.00 0.00 65 1017.6
20260903144021 89 296 2.0 6.0 0.00 0.00 0.00 66 1017.7
20260903143517 88 248 2.0 5.0 0.00 0.00 0.00 67 1017.6
20260903143045 88 247 1.0 4.0 0.00 0.00 0.00 67 1017.7
20260903142518 88 233 2.0 5.0 0.00 0.00 0.00 69 1017.7
20260903142019 88 281 2.0 5.0 0.00 0.00 0.00 68 1017.8
20260903141537 88 173 2.0 4.0 0.00 0.00 0.00 69 1017.7
20260903141020 88 268 2.0 3.0 0.00 0.00 0.00 69 1017.8
20260903140518 88 0 1.0 3.0 0.00 0.00 0.00 68 1017.8
20260903140045 89 158 0.0 2.0 0.00 0.00 0.00 68 1017.8
20260903135519 89 141 0.0 2.0 0.00 0.00 0.00 69 1017.9
20260903135019 89 141 0.0 2.0 0.00 0.00 0.00 70 1017.8
20260903134537 88 141 0.0 1.0 0.00 0.00 0.00 70 1017.8
20260903134020 88 141 0.0 1.0 0.00 0.00 0.00 71 1017.8
20260903133522 88 141 0.0 1.0 0.00 0.00 0.00 72 1017.8
20260903133040 87 141 0.0 1.0 0.00 0.00 0.00 72 1018.0
20260903132520 87 0 0.0 1.0 0.00 0.00 0.00 73 1017.9
20260903132022 86 0 0.0 1.0 0.00 0.00 0.00 74 1018.0
20260903131538 86 141 0.0 1.0 0.00 0.00 0.00 73 1018.0
20260903131020 85 0 0.0 0.0 0.00 0.00 0.00 75 1018.1
20260903130519 84 0 0.0 0.0 0.00 0.00 0.00 76 1018.0
20260903130039 84 0 0.0 0.0 0.00 0.00 0.00 77 1018.0
20260903125517 83 0 0.0 0.0 0.00 0.00 0.00 78 1018.1
20260903125018 82 0 0.0 0.0 0.00 0.00 0.00 79 1018.0
20260903124534 82 0 0.0 0.0 0.00 0.00 0.00 80 1018.1
20260903124021 81 0 0.0 1.0 0.00 0.00 0.00 81 1018.0
20260903123520 81 0 0.0 1.0 0.00 0.00 0.00 82 1018.1
20260903123037 81 0 0.0 0.0 0.00 0.00 0.00 82 1018.0
20260903122520 80 0 0.0 0.0 0.00 0.00 0.00 84 1017.9
20260903122020 79 0 0.0 0.0 0.00 0.00 0.00 85 1018.0
20260903121537 78 0 0.0 0.0 0.00 0.00 0.00 86 1017.8
20260903121019 78 0 0.0 0.0 0.00 0.00 0.00 87 1017.8
20260903120519 77 0 0.0 0.0 0.00 0.00 0.00 88 1017.9
20260903120052 76 0 0.0 0.0 0.00 0.00 0.00 89 1017.8
20260903115515 76 0 0.0 0.0 0.00 0.00 0.00 90 1017.8
20260903115016 75 0 0.0 0.0 0.00 0.00 0.00 91 1017.9
20260903114536 75 0 0.0 0.0 0.00 0.00 0.00 92 1017.8
20260903114020 74 0 0.0 0.0 0.00 0.00 0.00 92 1017.8
20260903113520 74 0 0.0 0.0 0.00 0.00 0.00 92 1017.6
20260903113102 74 0 0.0 0.0 0.00 0.00 0.00 92 1017.7
20260903112518 74 0 0.0 0.0 0.00 0.00 0.00 92 1017.6
20260903112023 74 0 0.0 0.0 0.00 0.00 0.00 93 1017.7
20260903111536 74 0 0.0 0.0 0.00 0.00 0.00 92 1017.6
20260903111019 74 0 0.0 0.0 0.00 0.00 0.00 92 1017.6
20260903110518 74 0 0.0 0.0 0.00 0.00 0.00 92 1017.5
20260903110036 74 0 0.0 0.0 0.00 0.00 0.00 92 1017.5
20260903105519 74 0 0.0 0.0 0.00 0.00 0.00 92 1017.4
20260903105018 74 0 0.0 0.0 0.00 0.00 0.00 92 1017.4
20260903104554 74 0 0.0 0.0 0.00 0.00 0.00 92 1017.3
20260903104017 74 0 0.0 0.0 0.00 0.00 0.00 91 1017.3
20260903103517 74 0 0.0 0.0 0.00 0.00 0.00 91 1017.3
20260903103039 75 0 0.0 0.0 0.00 0.00 0.00 91 1017.3
20260903102521 75 0 0.0 0.0 0.00 0.00 0.00 91 1017.2
20260903102017 75 0 0.0 0.0 0.00 0.00 0.00 91 1017.2
20260903101537 75 0 0.0 0.0 0.00 0.00 0.00 92 1017.2
20260903101018 75 0 0.0 0.0 0.00 0.00 0.00 92 1017.3
20260903100518 75 0 0.0 0.0 0.00 0.00 0.00 91 1017.4
20260903100039 75 0 0.0 0.0 0.00 0.00 0.00 91 1017.3
20260903095518 75 0 0.0 0.0 0.00 0.00 0.00 91 1017.3
20260903095022 75 0 0.0 0.0 0.00 0.00 0.00 92 1017.3
20260903094549 75 0 0.0 0.0 0.00 0.00 0.00 91 1017.3
20260903094022 75 0 0.0 0.0 0.00 0.00 0.00 91 1017.2
20260903093521 75 0 0.0 0.0 0.00 0.00 0.00 91 1017.3
20260903093042 75 0 0.0 0.0 0.00 0.00 0.00 91 1017.1
20260903092519 75 0 0.0 0.0 0.00 0.00 0.00 91 1017.2
20260903092020 75 0 0.0 0.0 0.00 0.00 0.00 91 1017.3
20260903091547 75 0 0.0 0.0 0.00 0.00 0.00 90 1017.3
20260903091016 75 0 0.0 0.0 0.00 0.00 0.00 90 1017.1
20260903090517 76 0 0.0 0.0 0.00 0.00 0.00 90 1017.1
20260903090044 76 0 0.0 0.0 0.00 0.00 0.00 89 1017.2
20260903085517 76 0 0.0 0.0 0.00 0.00 0.00 89 1017.1
20260903085019 76 0 0.0 0.0 0.00 0.00 0.00 89 1017.0
20260903084536 76 0 0.0 0.0 0.00 0.00 0.00 89 1017.0
20260903084020 76 0 0.0 0.0 0.00 0.00 0.00 88 1016.9
20260903083524 76 0 0.0 0.0 0.00 0.00 0.00 88 1016.9
20260903083034 77 0 0.0 0.0 0.00 0.00 0.00 87 1016.9
20260903082517 77 0 0.0 0.0 0.00 0.00 0.00 87 1016.8
20260903082018 77 0 0.0 0.0 0.00 0.00 0.00 87 1016.7
20260903081538 77 0 0.0 0.0 0.00 0.00 0.00 87 1016.8
20260903081019 77 0 0.0 0.0 0.00 0.00 0.00 87 1016.7
20260903080517 77 0 0.0 0.0 0.00 0.00 0.00 87 1016.7
20260903080037 77 0 0.0 0.0 0.00 0.00 0.00 87 1016.6
20260903075518 77 0 0.0 0.0 0.00 0.00 0.00 87 1016.6
20260903075023 77 0 0.0 0.0 0.00 0.00 0.00 86 1016.6
20260903074539 77 0 0.0 0.0 0.00 0.00 0.00 86 1016.6
20260903074017 77 0 0.0 0.0 0.00 0.00 0.00 86 1016.7
20260903073521 77 0 0.0 0.0 0.00 0.00 0.00 86 1016.7
20260903073039 77 0 0.0 0.0 0.00 0.00 0.00 86 1016.6
20260903072520 77 0 0.0 0.0 0.00 0.00 0.00 86 1016.6
20260903072020 77 0 0.0 0.0 0.00 0.00 0.00 86 1016.6
20260903071552 78 0 0.0 0.0 0.00 0.00 0.00 86 1016.5
20260903071020 78 0 0.0 0.0 0.00 0.00 0.00 85 1016.5
20260903070517 78 0 0.0 0.0 0.00 0.00 0.00 84 1016.5
20260903070038 78 0 0.0 0.0 0.00 0.00 0.00 84 1016.5
20260903065520 78 0 0.0 0.0 0.00 0.00 0.00 85 1016.4
20260903065017 78 0 0.0 0.0 0.00 0.00 0.00 84 1016.5
20260903064537 78 0 0.0 0.0 0.00 0.00 0.00 84 1016.4
20260903064021 78 0 0.0 0.0 0.00 0.00 0.00 84 1016.5
20260903063519 79 0 0.0 0.0 0.00 0.00 0.00 84 1016.5
20260903063034 79 0 0.0 0.0 0.00 0.00 0.00 83 1016.5
20260903062521 79 0 0.0 0.0 0.00 0.00 0.00 83 1016.6
20260903062023 79 0 0.0 0.0 0.00 0.00 0.00 83 1016.6
20260903061535 79 0 0.0 0.0 0.00 0.00 0.00 82 1016.6
20260903061024 79 0 0.0 0.0 0.00 0.00 0.00 82 1016.5
20260903060519 79 0 0.0 0.0 0.00 0.00 0.00 82 1016.5
20260903060038 79 0 0.0 0.0 0.00 0.00 0.00 83 1016.5
20260903055520 79 0 0.0 0.0 0.00 0.00 0.00 83 1016.5
20260903055022 79 0 0.0 0.0 0.00 0.00 0.00 83 1016.5
20260903054537 79 0 0.0 0.0 0.00 0.00 0.00 83 1016.6
20260903054021 79 0 0.0 0.0 0.00 0.00 0.00 83 1016.5
20260903053518 79 0 0.0 0.0 0.00 0.00 0.00 84 1016.5
20260903053037 79 0 0.0 0.0 0.00 0.00 0.00 84 1016.5
20260903052519 79 0 0.0 0.0 0.00 0.00 0.00 84 1016.5
20260903052020 79 0 0.0 0.0 0.00 0.00 0.00 84 1016.5
20260903051557 79 0 0.0 0.0 0.00 0.00 0.00 84 1016.5
20260903051021 79 0 0.0 0.0 0.00 0.00 0.00 84 1016.5
20260903050519 79 0 0.0 0.0 0.00 0.00 0.00 84 1016.4
20260903050039 79 0 0.0 0.0 0.00 0.00 0.00 84 1016.4
20260903045518 79 0 0.0 0.0 0.00 0.00 0.00 84 1016.4
20260903045024 79 0 0.0 0.0 0.00 0.00 0.00 84 1016.4
20260903044542 79 0 0.0 0.0 0.00 0.00 0.00 84 1016.4
20260903044018 79 0 0.0 0.0 0.00 0.00 0.00 84 1016.4
20260903043519 79 0 0.0 1.0 0.00 0.00 0.00 84 1016.4
20260903043121 79 0 0.0 1.0 0.00 0.00 0.00 84 1016.4
20260903042519 79 141 0.0 1.0 0.00 0.00 0.00 84 1016.4
20260903042017 80 141 0.0 1.0 0.00 0.00 0.00 84 1016.4
20260903041538 80 0 0.0 1.0 0.00 0.00 0.00 84 1016.3
20260903041019 80 0 0.0 1.0 0.00 0.00 0.00 83 1016.4
20260903040519 80 0 0.0 1.0 0.00 0.00 0.00 82 1016.4
20260903040038 80 0 0.0 1.0 0.00 0.00 0.00 81 1016.4
20260903035518 81 0 0.0 1.0 0.00 0.00 0.00 81 1016.5
20260903035017 81 141 0.0 1.0 0.00 0.00 0.00 80 1016.4
20260903034540 81 141 0.0 1.0 0.00 0.00 0.00 80 1016.4
20260903034020 81 0 0.0 0.0 0.00 0.00 0.00 79 1016.4
20260903033518 82 0 0.0 0.0 0.00 0.00 0.00 79 1016.3
20260903033039 82 0 0.0 0.0 0.00 0.00 0.00 79 1016.3
20260903032517 82 0 0.0 0.0 0.00 0.00 0.00 78 1016.4
20260903032017 82 0 0.0 0.0 0.00 0.00 0.00 78 1016.4
20260903031536 82 0 0.0 0.0 0.00 0.00 0.00 77 1016.3
20260903031019 82 0 0.0 0.0 0.00 0.00 0.00 77 1016.2
20260903030518 82 0 0.0 1.0 0.00 0.00 0.00 77 1016.3
20260903030038 82 0 0.0 1.0 0.00 0.00 0.00 77 1016.3
20260903025518 82 0 0.0 1.0 0.00 0.00 0.00 77 1016.4
20260903025017 83 0 0.0 1.0 0.00 0.00 0.00 76 1016.4
20260903024538 83 0 0.0 1.0 0.00 0.00 0.00 76 1016.4
20260903024020 83 0 0.0 1.0 0.00 0.00 0.00 76 1016.3
20260903023519 83 141 0.0 1.0 0.00 0.00 0.00 75 1016.4
20260903023041 83 0 0.0 1.0 0.00 0.00 0.00 75 1016.3